Dati Storici

Data ora Umidita' aria (%) Temperatura aria (°C) Rad globale (W/m²) Gonioanemometro (°) Tacoanemometro (m/s) Pioggia (mm)
18-06-2020 06:10 97.6 % 17.963 -55.875 1.549 0 0
18-06-2020 06:00 97.6 % 17.84 -46.272 -0.01 0 0
18-06-2020 05:50 97.6 % 17.784 -46.993 -0.01 0 0
18-06-2020 05:40 97.6 % 17.544 -48.595 0.58 0 0
18-06-2020 05:30 97.7 % 17.323 -52.252 -0.007 0 0
18-06-2020 05:20 97.7 % 16.881 -50.036 -0.002 0 0
18-06-2020 05:10 97.7 % 16.506 -54.419 0.407 0 0
18-06-2020 05:00 97.7 % 16.52 -66.744 0.292 0 0
18-06-2020 04:50 97.7 % 16.749 -50.069 -0.007 0 0
18-06-2020 04:40 97.7 % 16.828 -46.823 1.084 0 0
18-06-2020 04:30 97.7 % 16.921 -45.462 0.31 0 0
18-06-2020 04:20 97.6 % 17.178 -52.113 -0.009 0 0
18-06-2020 04:10 97.6 % 17.447 -27.048 -0.007 0 0
18-06-2020 04:00 97.7 % 17.637 -56.012 -0.005 0 0
18-06-2020 03:50 97.7 % 17.477 -48.159 -0.005 0 0
18-06-2020 03:40 97.7 % 17.445 -51.378 -0.004 0 0
18-06-2020 03:30 97.7 % 17.449 -46.214 -0.005 0 0
18-06-2020 03:20 97.7 % 17.474 -51.583 0.626 0 0
18-06-2020 03:10 97.6 % 17.634 -52.666 0.396 0 0
18-06-2020 03:00 97.6 % 17.699 -50.18 1.318 0 0

I dati sono presentati in modo automatico a scopo informativo. In seguito a verifica i dati possono subire modifiche o essere invalidati e non riportati negli archivi definitivi.